Portada
METAR-TAF:

METAR-TAF

Aeropuertos :

Base Aérea de Valencia-Bétera

Valencia, España

latitud: 39-37-26N, longitud: 0-28-26W, altitud: 127 m

Observación

El informe se hizo hace 38 minutos, a las 15:00 UTC
Viento 8 kt del este-sureste, variando entre este-noreste y sur-sureste
Temperatura 15°C
Humedad 51%
Presión 1028 hPa
Visibilidad 10 km o más

METAR: LEBT 161500Z AUTO 12008KT 070V150 9999 NCD 15/05 Q1028

Hora: 16:38 (15:38 UTC)


TAF: falta

Observaciones y pronósticos meteorológicos de más de 4000 aeropuertos (mensajes METAR y TAF).

Los puntos amarillos y rojos representan las estaciones disponibles.

Ponga el ratón en el punto deseado para ver el nombre de la estación.

Haga clic para ver las observaciones y los pronósticos meteorológicos.

Para cambiar el mapa : haga clic en los botones verdes con una cruz de color negro para hacer un zoom, en el botón verde con un guión para alejar o en las flechas verdes para mapas adyacentes.


METAR-TAF: